Location: Le Rocchette
(44.3500°N, 7.8333°E)
Time: 22:01:25
(UTC+00:00)

Abrixas rocket - Pass Details

Date: 17 November 2019
Orbit: 357 x 366 km, 48.4° (Epoch: 13 December)

Event Time Altitude Azimuth Distance (km) Brightness Sun altitude
Exits shadow 04:26:52 19° 167° (SSE) 930 4.2 -21.3°
Maximum altitude 04:27:41 21° 143° (SE) 863 4.3 -21.2°
Drops below altitude 10° 04:30:03 10° 90° (E) 1,339 6.0 -20.7°
Sets 04:32:22 0° 74° (ENE) 2,190 7.1 -20.3°
